Location: Quesnel
(52.9830°N, 122.4830°W)
Time: 01:42:13
(UTC-07:00)

ISS - All Passes

Search period start: 26 May 2016 00:00
Search period end: 05 June 2016 00:00
Orbit: 402 x 404 km, 51.6° (Epoch: 26 May)

Date Brightness Start Highest point End Pass type
(mag) Time Alt. Az. Time Alt. Az. Time Alt. Az.
26 May - 00:05:51 10° SW 00:08:55 37° SSE 00:11:57 10° E visible
26 May - 01:41:52 10° W 01:45:09 70° S 01:48:24 10° E visible
26 May - 03:18:16 10° W 03:21:27 49° SSW 03:24:37 10° ESE visible
26 May - 04:55:14 10° WSW 04:57:23 16° SW 04:59:31 10° S daylight
26 May - 23:13:30 10° SSW 23:16:17 26° SSE 23:19:06 10° E visible
27 May - 00:49:11 10° WSW 00:52:25 64° S 00:55:40 10° E visible
27 May - 02:25:31 10° W 02:28:45 61° S 02:31:59 10° ESE visible
27 May - 04:02:08 10° W 04:04:50 24° SSW 04:07:32 10° SSE visible
27 May - 22:21:23 10° SSW 22:23:43 18° SE 22:26:04 10° E visible
27 May - 23:56:31 10° WSW 23:59:42 53° SSE 00:02:55 10° E visible
28 May - 01:32:46 10° W 01:36:02 69° S 01:39:17 10° ESE visible
28 May - 03:09:14 10° W 03:12:14 33° SSW 03:15:13 10° SE visible
28 May - 21:29:50 10° SSE 21:31:13 12° SE 21:32:36 10° ESE daylight
28 May - 23:03:56 10° SW 23:07:02 40° SSE 23:10:08 10° E visible
29 May - 00:40:01 10° W 00:43:17 71° S 00:46:33 10° E visible
29 May - 02:16:26 10° W 02:19:35 45° SSW 02:22:43 10° SE visible
29 May - 03:53:35 10° WSW 03:55:28 15° SW 03:57:20 10° S visible
29 May - 22:11:30 10° SW 22:14:23 29° SSE 22:17:18 10° E visible
29 May - 23:47:18 10° WSW 23:50:32 66° S 23:53:48 10° E visible
30 May - 01:23:39 10° W 01:26:53 57° SSW 01:30:06 10° ESE visible
30 May - 03:00:21 10° W 03:02:55 21° SSW 03:05:29 10° SSE visible
30 May - 21:19:16 10° SSW 21:21:47 21° SSE 21:24:19 10° E daylight
30 May - 22:54:36 10° WSW 22:57:49 56° SSE 23:01:03 10° E visible
31 May - 00:30:53 10° W 00:34:09 67° S 00:37:24 10° ESE visible
31 May - 02:07:23 10° W 02:10:19 30° SSW 02:13:14 10° SE visible
31 May - 20:27:28 10° S 20:29:15 14° SE 20:31:01 10° ESE daylight
31 May - 22:01:59 10° SW 22:05:06 44° SSE 22:08:15 10° E daylight
31 May - 23:38:07 10° W 23:41:24 71° S 23:44:39 10° E visible
01 Jun - 01:14:33 10° W 01:17:40 41° SSW 01:20:46 10° SE visible
01 Jun - 02:51:56 10° WSW 02:53:29 13° SW 02:55:01 10° S visible
01 Jun - 21:09:29 10° SW 21:12:26 32° SSE 21:15:25 10° E daylight
01 Jun - 22:45:22 10° WSW 22:48:38 68° S 22:51:53 10° E visible
02 Jun - 00:21:45 10° W 00:24:57 54° SSW 00:28:09 10° ESE visible
02 Jun - 01:58:32 10° W 02:00:57 19° SSW 02:03:22 10° SSE visible
02 Jun - 20:17:09 10° SSW 20:19:48 23° SSE 20:22:28 10° E daylight
02 Jun - 21:52:39 10° WSW 21:55:52 59° S 21:59:06 10° E daylight
02 Jun - 23:28:58 10° W 23:32:13 65° S 23:35:27 10° ESE visible
03 Jun - 01:05:30 10° W 01:08:21 27° SSW 01:11:11 10° SSE visible
03 Jun - 19:25:11 10° S 19:27:14 16° SE 19:29:17 10° ESE daylight
03 Jun - 20:59:58 10° WSW 21:03:09 47° SSE 21:06:19 10° E daylight
03 Jun - 22:36:10 10° W 22:39:27 70° S 22:42:42 10° E visible
04 Jun - 00:12:36 10° W 00:15:41 38° SSW 00:18:45 10° SE visible
04 Jun - 01:50:25 10° WSW 01:51:28 11° SW 01:52:30 10° SSW visible
04 Jun - 18:34:34 10° SE 18:34:43 10° SE 18:34:53 10° SE daylight
04 Jun - 20:07:25 10° SW 20:10:27 35° SSE 20:13:29 10° E daylight
04 Jun - 21:43:24 10° W 21:46:40 70° S 21:49:56 10° E daylight
04 Jun - 23:19:47 10° W 23:22:59 50° SSW 23:26:10 10° ESE visible
